sat.trackr.live / text

‹ back to catalog

STARLINK-36633

NORAD 67632 · 2026-020R

PAYLOAD ACTIVE UNKNOWN

§ Identity

Operator
Country
US
Launch date
2026-01-30
Launch site
AFETR
Launch vehicle
Mass (kg)
RCS (m²)

Purposes: comms

External: N2YO · Heavens-Above · Gunter

§ Orbital elements

Epoch: 2026-05-25T03:27:50.550912Z

Period
94.27 min
Inclination
43.0039°
Eccentricity
0.0001123
Mean motion
15.27597016 rev/d
Perigee alt
482.2 km
Apogee alt
483.8 km
Semi-major
6,861.1 km
B*
5.5079e-4
RAAN
68.2371°
Arg perigee
257.7774°
Mean anomaly
102.2952°
Rev number
1,780

§ Raw data

STARLINK-366331 67632U 26020R   26145.14433508  .00014933  00000+0  55079-3 0  99982 67632  43.0039  68.2371 0001123 257.7774 102.2952 15.27597016 17808

JSON: /api/v1/satellites/67632 · /tle

For live sub-satellite position, see the globe view (requires WebGL).

§ Visibility from observer

Set your observer location to see the next 7 days of passes ≥ 10°. The values pass through the URL so the page stays shareable.

No JS? Fill the form by hand. The geolocation button needs JavaScript.